Flag for Norway Weather past 2 weeks in Kirkenes, Norway

Now
58 °F

Cool.


Feels Like: 59 °F
Forecast: 53 / 63 °F
Wind: 3 mph from South

Location: Kirkenes Lufthavn

Current Time: Aug 5, 2015 at 12:43:35 PM

Latest Report: Aug 5, 2015 at 12:00 PM


Visibility: N/A

Pressure: 30.17 "Hg

Humidity: 76%

Dew point: 51 °F

Location of KirkenesLocation

Historic Weather in Kirkenes — Graph

°F

Kirkenes temperature yesterday

Maximum temperature yesterday: 51 °F (at 5:00 PM)
Minimum temperature yesterday: 49 °F (at 6:00 AM)
Average temperature yesterday: 50 °F

Past Weeks' High & Low Weather Summary

 TemperatureHumidityPressure
High64 °F (Jul 26, 3:00 PM)99% (Jul 25, 2:00 AM)30.18 "Hg (Jul 25, 2:00 AM)
Low42 °F (Jul 23, 12:00 AM)44% (Jul 26, 2:00 PM)29.64 "Hg (Jul 30, 3:00 PM)
Average52 °F82%29.81 "Hg
* Reported Jul 21 11:00 AM — Aug 5 11:00 AM, Kirkenes, Weather by CustomWeather, © 2015

Note: Actual official high and low records may vary slightly from our data, if they occured in-between our weather recording intervals... More about our weather records

Advertising

Kirkenes weather history for previous 24 hours

 ConditionsComfort  
Time TempWeatherWind HumidityBarometerVisibility
11:00 AM
Wed, Aug 5
57 °FCool.3 mph80%30.18 "HgN/A
10:00 AM56 °FCool.3 mph84%30.18 "HgN/A
9:00 AM54 °FCool.3 mph88%30.17 "HgN/A
8:00 AM54 °FCool.3 mph85%30.17 "HgN/A
7:00 AM52 °FCool.2 mph91%30.17 "HgN/A
4:00 AM51 °FCool.1 mph97%30.14 "HgN/A
3:00 AM51 °FCool.2 mph98%30.14 "HgN/A
2:00 AM50 °FCool.1 mph97%30.14 "HgN/A
1:00 AM50 °FCool.1 mph97%30.12 "HgN/A
12:00 AM51 °FCool.No wind96%30.11 "HgN/A
10:00 PM
Tue, Aug 4
50 °FCool.1 mph96%30.09 "HgN/A
9:00 PM51 °FCool.1 mph97%30.08 "HgN/A
8:00 PM51 °FCool.2 mph95%30.07 "HgN/A
7:00 PM51 °FCool.No wind94%30.06 "HgN/A
6:00 PM51 °FCool.No wind93%30.05 "HgN/A
5:00 PM51 °FCool.1 mph93%30.04 "HgN/A
4:00 PM50 °FCool.1 mph94%30.03 "HgN/A
3:00 PM50 °FCool.1 mph95%30.02 "HgN/A
2:00 PM50 °FCool.2 mph93%30.01 "HgN/A
1:00 PM50 °FCool.2 mph94%29.99 "HgN/A
12:00 PM49 °FCool.3 mph96%29.98 "HgN/A
Weather by CustomWeather, © 2015

See weather overviewHow to use our weather pages